Temp
67 71 70 69 56 51 47 56 66 66 72 77 80 78 76 78 75 65 75 79 78 78 80 79 79 79 79 79 79 78 78 78 78 79 79 78 78 79 79 79 79 80 80 80 80 80 80 80 80
66 73 69 62 50 43 48 60 65 71 76 79 80 82 78 72 77 73 73 78 79 78 79 77 79 79 79 79 78 78 78 78 78 78 78 78 78 79 79 79 79 80 80 80 80 80 80 79 79
68 70 61 55 47 47 50 61 67 74 77 78 76 83 81 73 76 76 76 78 78 78 77 77 79 79 79 79 78 78 78 78 78 78 78 78 78 78 78 78 79 80 80 80 80 79 79 79 79
65 62 58 49 48 53 60 64 68 71 76 77 79 76 81 83 80 77 77 77 77 78 76 78 78 78 78 78 78 78 78 78 78 79 78 78 78 78 78 78 78 79 80 80 79 79 78 78 79
60 54 47 43 49 56 65 69 69 70 74 77 80 73 73 77 78 77 76 77 76 78 76 77 78 78 79 79 78 78 78 78 78 78 78 78 78 78 77 78 78 79 79 79 79 79 78 78 78
53 51 40 47 48 64 65 69 69 69 74 78 75 71 69 78 76 76 76 74 78 78 79 76 78 78 78 78 78 78 78 78 78 78 78 78 78 78 78 78 78 78 78 79 79 78 78 77 77
49 44 41 41 55 58 65 70 69 69 72 75 75 67 71 74 78 78 75 74 74 79 78 77 76 78 78 78 78 77 77 77 77 77 77 77 77 77 77 78 78 78 78 78 78 78 77 77 77
53 48 42 47 50 57 68 68 68 72 74 81 78 65 65 73 78 75 73 73 76 78 78 78 77 75 74 75 78 77 77 77 77 77 77 77 77 77 77 77 77 78 78 78 78 78 77 77 76
57 43 40 49 51 55 63 65 73 79 75 75 77 74 77 79 77 73 70 71 74 76 77 78 74 75 73 73 76 77 78 77 77 77 77 75 71 72 73 75 77 78 78 78 78 77 77 77 76
51 41 47 55 57 55 61 70 72 72 72 70 73 77 79 78 75 72 71 69 69 72 75 77 75 76 76 77 74 72 74 72 72 72 72 70 69 69 74 75 77 77 78 78 77 77 77 76 71
49 48 54 57 60 60 60 64 75 67 64 69 72 73 78 76 75 74 74 73 70 70 73 75 76 76 74 74 74 71 70 70 70 71 70 69 70 68 69 69 71 70 74 72 73 72 71 71 70
47 54 57 58 62 59 59 66 70 68 70 74 76 79 76 75 75 74 74 73 72 71 72 71 71 71 71 71 72 70 70 69 69 69 69 67 66 67 68 69 70 70 70 70 70 69 70 70 71
49 53 57 63 62 59 63 63 65 67 74 78 79 78 77 77 76 78 75 76 76 73 73 72 72 71 70 69 68 67 67 68 68 68 68 67 67 68 69 70 70 71 70 69 69 70 70 70 72
53 56 59 59 57 57 60 62 64 68 75 76 76 75 77 78 75 76 75 73 73 74 73 73 71 72 71 69 68 68 67 67 67 68 69 70 69 70 71 71 71 71 72 72 71 71 70 70 70
55 48 54 56 58 56 63 59 60 70 74 74 72 74 73 70 70 70 74 74 74 75 72 71 71 72 69 69 68 68 69 71 70 71 72 72 71 71 72 71 71 72 72 73 74 73 70 69 70
48 47 40 51 58 60 62 52 62 70 69 70 71 73 70 68 68 68 71 70 72 73 70 71 76 74 72 71 71 72 73 73 73 73 73 74 74 74 72 72 72 72 72 73 71 69 67 65 64
42 36 41 49 58 59 60 51 63 69 68 68 69 71 70 66 67 67 69 70 68 69 69 70 71 72 73 75 75 76 75 75 76 74 74 76 76 76 73 72 71 70 68 68 67 66 64 60 59
37 38 43 47 53 56 52 50 58 65 65 67 66 69 69 65 65 67 69 71 68 68 67 67 69 71 73 75 77 73 71 73 74 74 74 75 75 75 72 71 69 67 64 61 62 61 61 58 56
47 46 45 50 58 54 50 54 58 62 62 62 63 63 63 65 66 67 68 70 69 67 67 67 68 66 67 69 69 68 68 71 72 74 75 74 74 73 70 68 65 64 62 59 60 59 57 57 58
47 43 43 51 56 53 50 51 59 60 60 62 61 60 61 61 63 65 66 67 68 67 67 67 67 66 66 67 69 69 72 71 71 71 71 72 69 69 69 67 64 63 62 59 58 56 55 56 56
46 43 44 46 52 53 51 47 53 55 57 59 59 63 63 63 62 63 63 64 65 67 68 67 69 66 66 66 66 69 69 67 66 66 65 66 68 68 68 65 64 62 61 57 56 56 56 54 55
41 52 52 51 46 40 51 37 47 53 52 54 56 58 60 62 62 63 62 63 64 65 66 67 67 68 68 67 67 67 67 65 65 64 64 64 66 67 66 65 63 61 59 59 59 58 55 55 52
47 56 52 52 44 40 43 40 45 51 49 55 58 57 59 62 62 62 63 65 65 65 64 64 65 66 67 67 70 68 67 64 64 63 63 63 64 65 65 64 62 60 59 58 58 57 55 53 51
58 53 50 46 42 33 42 42 41 47 53 51 56 58 60 60 62 63 63 64 64 64 63 63 63 64 67 66 69 69 65 63 61 61 61 61 62 62 63 63 61 59 58 58 57 56 55 52 52
50 43 32 32 31 31 42 42 45 52 56 57 56 57 60 61 59 60 60 59 61 62 63 63 63 65 68 67 68 66 64 63 62 61 60 60 60 60 60 61 61 58 58 58 56 54 53 52 51
46 43 31 28 28 32 45 39 47 55 61 60 62 61 61 59 58 59 60 59 60 61 63 64 63 64 65 66 66 65 64 62 61 61 61 60 60 60 61 60 59 58 58 56 54 53 52 50 49
45 41 47 38 37 35 38 45 54 58 56 57 58 58 57 58 58 59 60 61 61 60 63 63 65 65 63 66 65 65 62 62 61 62 61 60 60 62 60 59 58 56 56 54 52 50 49 48 47
49 52 40 36 30 29 36 38 43 49 54 55 54 55 58 58 58 60 61 62 64 63 66 63 63 64 65 65 64 63 63 63 62 62 60 59 59 59 58 57 56 55 53 52 50 47 47 47 45
45 41 42 40 36 30 28 36 47 51 55 56 55 58 58 59 60 62 64 64 65 66 67 65 63 64 64 64 63 62 62 63 62 61 59 58 57 57 57 56 55 53 51 49 48 47 47 46 44
50 46 43 34 33 35 35 36 52 51 51 56 60 60 60 61 62 64 60 64 65 65 65 64 63 63 63 63 62 60 61 61 60 58 57 56 55 55 55 55 54 52 50 47 47 46 46 45 44
MSLP
1010.71 1010.42 1010.45 1010.60 1011.77 1011.74 1010.59 1008.53 1006.34 1005.62 1004.82 1003.95 1003.39 1003.72 1003.48 1003.93 1004.77 1005.99 1005.21 1005.97 1006.18 1006.69 1007.71 1008.48 1008.93 1009.17 1009.25 1009.75 1010.31 1010.56 1010.79 1011.05 1011.19 1011.33 1011.44 1011.61 1011.92 1012.17 1012.33 1012.62 1012.81 1012.97 1013.07 1013.19 1013.21 1013.19 1013.18 1013.17 1013.13
1010.55 1010.27 1010.59 1011.26 1011.88 1011.71 1010.03 1007.91 1005.95 1004.53 1004.12 1003.59 1003.25 1003.47 1003.58 1004.11 1004.68 1005.31 1005.44 1006.47 1006.64 1006.57 1007.45 1008.39 1008.88 1009.13 1009.25 1009.84 1010.35 1010.67 1010.97 1011.19 1011.43 1011.75 1011.94 1012.08 1012.28 1012.53 1012.73 1012.85 1012.93 1013.05 1013.18 1013.32 1013.33 1013.35 1013.31 1013.21 1013.15
1010.42 1010.57 1011.20 1011.60 1011.43 1010.35 1009.15 1007.10 1005.63 1003.77 1003.13 1003.45 1003.29 1003.13 1003.52 1004.27 1005.10 1005.38 1005.38 1006.59 1007.03 1007.12 1007.36 1008.13 1008.73 1009.17 1009.43 1010.01 1010.53 1010.68 1011.02 1011.34 1011.50 1011.77 1012.17 1012.47 1012.67 1012.90 1013.05 1013.07 1013.12 1013.20 1013.40 1013.51 1013.56 1013.57 1013.50 1013.46 1013.32
1010.68 1011.33 1011.94 1011.65 1010.50 1009.10 1007.69 1006.20 1004.94 1004.39 1003.75 1003.19 1003.15 1003.71 1003.95 1004.07 1004.84 1005.75 1006.29 1006.96 1007.57 1007.90 1007.81 1008.00 1008.38 1008.99 1009.45 1009.91 1010.58 1010.95 1011.20 1011.46 1011.76 1011.97 1012.17 1012.49 1012.79 1013.03 1013.22 1013.30 1013.40 1013.53 1013.57 1013.67 1013.72 1013.66 1013.55 1013.52 1013.37
1010.99 1011.88 1012.21 1011.68 1009.98 1008.31 1007.02 1005.71 1004.89 1004.40 1003.94 1003.45 1003.55 1004.41 1004.95 1005.49 1005.59 1006.29 1007.02 1007.73 1008.09 1008.66 1008.65 1008.68 1009.01 1009.31 1009.76 1010.20 1010.59 1011.07 1011.48 1011.71 1012.01 1012.29 1012.37 1012.60 1012.89 1013.17 1013.31 1013.38 1013.47 1013.63 1013.70 1013.75 1013.75 1013.70 1013.59 1013.51 1013.46
1011.51 1011.96 1012.23 1010.92 1009.39 1007.70 1006.73 1005.59 1004.98 1004.78 1004.09 1003.62 1003.95 1004.89 1006.17 1006.15 1006.27 1006.12 1006.95 1007.83 1008.35 1008.51 1008.83 1008.92 1009.12 1009.33 1009.80 1010.39 1010.86 1011.32 1011.76 1012.10 1012.44 1012.71 1012.85 1012.93 1013.07 1013.13 1013.29 1013.40 1013.39 1013.47 1013.66 1013.73 1013.76 1013.78 1013.65 1013.53 1013.61
1011.32 1011.86 1011.44 1010.38 1008.99 1007.31 1006.29 1005.43 1004.95 1004.67 1004.40 1003.73 1004.01 1005.02 1005.92 1005.95 1005.90 1006.76 1007.45 1007.75 1008.57 1009.02 1009.04 1009.31 1009.55 1009.75 1010.04 1010.53 1010.98 1011.40 1011.83 1012.14 1012.49 1012.78 1012.99 1013.08 1013.18 1013.29 1013.38 1013.45 1013.59 1013.62 1013.71 1013.65 1013.67 1013.66 1013.64 1013.63 1013.49
1010.87 1011.25 1010.97 1009.71 1008.33 1005.69 1005.85 1005.19 1004.45 1004.14 1003.67 1003.44 1004.06 1004.87 1005.64 1005.22 1005.09 1006.41 1007.77 1008.51 1008.84 1009.31 1009.63 1009.92 1009.94 1010.10 1010.38 1010.65 1010.95 1011.25 1011.69 1011.99 1012.28 1012.61 1012.91 1013.20 1013.33 1013.43 1013.62 1013.73 1013.75 1013.81 1013.85 1013.79 1013.67 1013.57 1013.54 1013.61 1013.50
1010.28 1010.83 1009.88 1008.39 1007.79 1007.57 1005.77 1005.13 1004.18 1003.39 1003.63 1003.83 1003.88 1003.83 1003.60 1004.62 1005.51 1005.98 1007.69 1008.71 1009.10 1009.41 1009.72 1010.19 1010.50 1010.41 1010.58 1010.95 1011.15 1011.41 1011.69 1012.05 1012.29 1012.60 1012.91 1013.14 1013.37 1013.42 1013.52 1013.60 1013.71 1013.79 1013.85 1013.82 1013.80 1013.55 1013.49 1013.43 1013.34
1009.81 1009.57 1008.28 1007.39 1007.20 1006.79 1005.87 1004.80 1004.26 1003.85 1003.97 1004.13 1004.06 1003.71 1003.92 1004.34 1005.32 1005.29 1006.12 1007.80 1008.47 1009.11 1009.40 1009.92 1010.55 1010.91 1010.89 1010.97 1011.22 1011.57 1011.82 1012.19 1012.53 1012.69 1012.79 1013.02 1013.13 1013.29 1013.35 1013.38 1013.33 1013.35 1013.40 1013.36 1013.36 1013.34 1013.41 1013.45 1013.33
1009.11 1008.15 1007.61 1006.69 1006.57 1006.68 1006.17 1005.19 1004.21 1004.32 1004.26 1003.79 1003.67 1003.72 1004.23 1003.80 1004.70 1005.64 1005.92 1006.47 1007.31 1008.56 1009.17 1009.62 1009.99 1010.43 1010.99 1011.23 1011.53 1011.85 1012.11 1012.18 1012.35 1012.57 1012.84 1013.20 1013.33 1013.33 1013.34 1013.31 1013.19 1013.30 1013.26 1013.19 1013.03 1013.04 1013.13 1013.24 1013.27
1008.95 1007.77 1007.23 1006.74 1006.75 1006.74 1006.20 1005.46 1004.64 1004.35 1003.95 1003.55 1003.31 1002.95 1004.26 1004.06 1004.48 1005.56 1006.08 1006.61 1006.99 1007.96 1008.54 1009.31 1009.97 1010.46 1010.92 1011.07 1011.68 1012.01 1012.15 1012.41 1012.53 1012.80 1012.80 1012.93 1013.14 1013.29 1013.36 1013.42 1013.15 1013.16 1013.16 1013.02 1012.99 1013.18 1013.25 1013.13 1013.07
1008.47 1007.71 1007.11 1006.79 1006.85 1006.77 1006.36 1005.88 1004.96 1004.06 1003.49 1003.31 1003.01 1003.33 1003.17 1004.09 1004.85 1005.62 1006.52 1007.12 1006.87 1007.15 1008.11 1008.90 1009.82 1010.23 1010.61 1010.95 1011.47 1011.98 1012.24 1012.22 1012.17 1012.45 1012.71 1012.94 1013.26 1013.43 1013.27 1013.20 1013.11 1012.98 1012.94 1012.88 1013.06 1013.08 1013.08 1013.01 1012.71
1007.74 1007.41 1007.21 1006.77 1006.90 1006.91 1006.30 1005.56 1005.07 1003.45 1003.21 1003.07 1003.13 1003.21 1003.61 1004.64 1005.05 1005.89 1006.52 1006.93 1007.85 1008.06 1008.85 1009.08 1009.93 1010.40 1010.65 1010.80 1011.26 1011.78 1012.04 1012.22 1012.43 1012.55 1012.59 1012.81 1013.02 1013.05 1013.19 1013.07 1013.03 1013.03 1012.90 1012.56 1012.62 1012.97 1013.00 1013.01 1012.91
1007.73 1007.54 1007.01 1006.25 1006.47 1007.04 1006.02 1005.32 1003.74 1003.56 1003.49 1003.18 1003.55 1003.55 1004.65 1005.59 1006.07 1006.07 1006.13 1006.84 1007.50 1008.39 1008.67 1009.24 1009.71 1010.59 1011.15 1011.35 1011.53 1011.75 1011.79 1012.00 1012.27 1012.47 1012.47 1012.45 1012.63 1012.78 1012.87 1013.17 1013.41 1013.12 1012.91 1012.69 1012.83 1012.95 1012.98 1013.17 1012.93
1007.70 1007.49 1006.97 1005.59 1005.93 1006.26 1006.11 1003.81 1003.76 1003.29 1003.57 1003.50 1003.43 1003.96 1004.96 1005.89 1006.69 1006.91 1006.49 1007.03 1007.60 1008.61 1009.35 1009.91 1010.63 1010.89 1011.09 1011.66 1011.57 1011.60 1011.47 1011.65 1011.75 1011.93 1012.17 1012.41 1012.57 1012.55 1012.74 1012.97 1013.20 1013.28 1013.30 1013.14 1013.22 1013.41 1013.79 1013.81 1013.70
1007.78 1007.18 1006.57 1005.61 1004.85 1004.93 1005.05 1003.79 1003.15 1003.15 1003.48 1003.58 1003.62 1004.05 1005.09 1006.13 1006.67 1006.92 1007.04 1007.28 1007.74 1008.42 1009.24 1010.18 1010.66 1011.08 1011.01 1011.11 1011.44 1011.63 1011.30 1011.36 1011.59 1011.93 1011.95 1012.12 1012.44 1012.72 1012.59 1012.83 1013.10 1013.34 1013.43 1013.85 1013.75 1013.98 1014.10 1014.45 1014.30
1007.64 1007.12 1006.16 1005.60 1004.60 1004.36 1004.34 1004.09 1003.15 1003.18 1003.48 1003.49 1003.87 1004.15 1005.09 1006.16 1006.66 1007.05 1007.06 1007.49 1007.58 1008.07 1009.07 1009.81 1010.95 1011.41 1011.72 1012.12 1011.70 1011.65 1011.56 1011.53 1011.56 1011.68 1012.03 1012.17 1012.48 1012.90 1013.02 1013.14 1013.53 1013.78 1013.98 1014.30 1014.23 1014.46 1014.69 1014.85 1014.73
1007.12 1006.49 1005.81 1004.89 1003.93 1003.92 1004.20 1004.29 1003.66 1003.17 1003.62 1003.95 1004.15 1004.72 1005.27 1005.96 1006.67 1007.11 1007.30 1007.11 1007.28 1008.02 1008.96 1009.57 1010.83 1011.79 1012.37 1012.80 1013.01 1012.32 1012.13 1012.01 1011.71 1011.49 1011.35 1011.89 1012.57 1013.02 1013.21 1013.68 1014.10 1014.22 1014.59 1014.97 1014.66 1014.97 1015.15 1015.17 1014.79
1006.98 1006.43 1005.55 1004.64 1003.93 1003.84 1003.97 1003.89 1003.45 1003.19 1003.52 1003.90 1004.32 1004.97 1005.58 1006.12 1006.65 1007.12 1007.49 1007.20 1006.85 1007.31 1008.14 1009.46 1009.73 1011.54 1012.52 1012.35 1013.63 1012.58 1012.57 1011.97 1012.01 1011.00 1011.78 1011.84 1012.77 1013.82 1013.34 1013.69 1014.23 1015.02 1014.94 1015.20 1015.09 1015.00 1015.33 1015.46 1015.41
1006.38 1006.09 1005.38 1004.77 1004.16 1003.83 1003.86 1004.05 1003.69 1003.85 1003.97 1004.33 1004.51 1004.57 1005.36 1005.61 1006.46 1007.17 1007.34 1007.36 1007.32 1007.04 1006.37 1006.82 1008.25 1009.60 1012.11 1011.00 1011.45 1014.49 1012.76 1012.75 1012.53 1012.41 1012.62 1012.98 1013.49 1013.92 1013.91 1014.31 1014.76 1015.14 1015.25 1015.66 1015.47 1015.57 1015.38 1015.83 1015.87
1005.90 1005.47 1005.27 1004.89 1004.63 1004.66 1004.17 1004.76 1004.06 1004.05 1004.63 1004.98 1005.11 1005.13 1005.35 1005.99 1006.43 1006.73 1006.91 1007.07 1006.76 1006.79 1007.12 1006.26 1007.77 1008.62 1010.64 1011.07 1011.67 1013.19 1012.31 1013.47 1013.18 1013.59 1013.53 1013.95 1014.14 1014.86 1014.83 1015.09 1014.95 1015.23 1015.73 1015.28 1015.66 1015.87 1015.64 1015.67 1016.36
1005.28 1004.73 1004.91 1005.06 1005.11 1005.07 1005.01 1005.18 1004.31 1004.18 1004.80 1004.97 1005.10 1005.19 1005.15 1005.56 1006.09 1006.15 1006.03 1006.13 1006.26 1006.67 1007.20 1007.75 1008.85 1009.18 1009.50 1010.04 1010.36 1010.36 1012.23 1013.02 1013.90 1014.59 1014.52 1013.84 1014.55 1015.68 1015.72 1015.51 1015.45 1015.66 1015.95 1015.61 1015.97 1016.36 1016.27 1016.07 1016.24
1004.70 1004.75 1004.97 1005.39 1005.77 1006.02 1005.18 1004.95 1004.63 1003.85 1003.02 1004.05 1004.72 1004.83 1005.03 1005.27 1005.65 1006.05 1006.31 1006.53 1006.40 1006.81 1007.49 1007.75 1008.29 1008.62 1009.16 1009.72 1010.25 1010.88 1011.17 1012.10 1013.48 1014.59 1014.56 1014.35 1015.42 1015.89 1016.19 1015.58 1015.29 1015.95 1016.05 1015.74 1016.39 1016.67 1016.57 1016.34 1016.43
1004.45 1004.78 1005.75 1006.61 1006.72 1006.30 1005.31 1005.17 1003.84 1002.84 1002.59 1002.42 1003.62 1004.39 1004.72 1005.15 1005.54 1005.96 1006.33 1006.71 1006.89 1006.90 1007.47 1008.19 1008.39 1008.37 1007.97 1008.59 1009.27 1010.08 1011.01 1012.23 1013.02 1014.57 1014.41 1014.99 1015.60 1016.34 1016.23 1015.38 1015.97 1016.53 1016.07 1016.04 1016.48 1016.69 1016.80 1016.63 1016.59
1004.45 1004.95 1005.61 1006.31 1006.82 1006.54 1005.49 1004.67 1003.15 1002.11 1001.97 1002.13 1002.64 1003.21 1004.25 1005.09 1005.51 1005.92 1006.26 1006.54 1006.87 1007.65 1007.93 1007.90 1008.00 1007.74 1007.93 1008.24 1009.61 1010.18 1011.53 1013.05 1013.45 1014.31 1014.79 1015.11 1015.92 1016.69 1016.09 1015.96 1016.32 1016.57 1016.12 1016.33 1016.55 1016.73 1016.78 1016.91 1016.99
1004.53 1005.10 1005.46 1006.19 1006.81 1006.55 1005.80 1004.06 1002.95 1002.40 1002.38 1002.59 1002.95 1003.92 1004.60 1004.92 1005.60 1005.87 1006.16 1006.36 1006.93 1007.40 1007.37 1007.55 1007.77 1008.37 1009.10 1009.87 1010.27 1010.02 1009.64 1012.97 1013.49 1014.67 1015.10 1015.61 1016.14 1016.19 1016.45 1016.63 1016.99 1016.94 1016.50 1016.51 1016.75 1017.02 1017.45 1017.47 1017.46
1003.85 1004.61 1005.66 1006.42 1007.33 1007.42 1006.18 1005.05 1003.72 1002.96 1002.95 1003.39 1003.69 1003.85 1004.20 1004.70 1005.22 1005.59 1006.03 1006.62 1006.78 1007.31 1007.44 1007.99 1008.28 1009.09 1009.34 1010.17 1011.13 1011.34 1011.97 1013.09 1014.20 1015.12 1015.60 1015.97 1016.10 1016.71 1017.10 1017.22 1017.26 1017.05 1016.97 1017.01 1017.23 1017.62 1017.87 1017.75 1017.61
1004.05 1004.74 1005.68 1006.42 1007.53 1007.59 1007.36 1005.29 1004.17 1003.79 1002.89 1002.89 1002.97 1002.73 1003.02 1003.55 1004.14 1004.83 1005.85 1006.50 1007.05 1007.43 1007.65 1008.11 1008.58 1009.41 1010.23 1010.80 1011.33 1012.25 1012.70 1013.45 1014.65 1015.66 1015.99 1016.08 1016.69 1017.27 1017.59 1017.25 1017.03 1017.15 1017.44 1017.96 1017.95 1018.07 1017.96 1017.89 1018.00
1003.27 1004.25 1005.22 1006.49 1007.80 1007.74 1007.52 1005.37 1003.56 1003.38 1002.96 1002.35 1001.78 1002.05 1002.33 1002.63 1003.39 1004.42 1005.98 1006.19 1006.52 1007.24 1007.89 1008.85 1009.41 1009.89 1010.45 1010.98 1011.68 1012.29 1012.79 1013.87 1015.25 1015.91 1016.55 1016.82 1017.09 1017.41 1017.56 1017.21 1017.21 1017.90 1018.07 1018.02 1018.12 1018.33 1018.43 1018.41 1018.33
Wind_Speed
7 6 1 3 3 4 4 8 3 3 2 2 1 3 6 3 7 6 4 8 18 19 17 14 16 16 18 17 16 16 16 15 15 15 15 16 16 15 15 13 12 12 11 9 8 8 7 5 4
3 4 4 2 4 3 7 5 9 6 6 3 2 2 0 2 3 7 9 12 17 18 16 14 17 17 19 18 16 16 15 15 14 13 13 13 13 13 13 12 11 11 10 8 6 5 4 2 2
2 0 4 4 5 9 6 6 11 8 9 5 1 1 2 1 3 11 12 13 13 15 16 16 19 18 19 18 17 16 16 14 15 14 13 12 12 11 10 10 9 10 8 6 5 3 2 1 3
2 4 4 3 9 8 7 7 4 3 2 1 2 2 4 9 4 6 14 13 11 14 12 18 20 20 19 19 17 16 15 15 14 15 14 13 12 11 9 8 7 7 6 5 3 3 3 4 5
3 3 3 4 10 4 7 7 5 7 7 2 5 1 3 5 13 17 13 10 11 12 8 12 17 18 18 18 17 16 15 14 13 13 14 13 11 10 8 8 7 6 5 4 4 5 5 6 6
3 3 2 13 8 13 6 7 4 2 6 8 2 6 2 10 10 16 15 10 9 14 13 10 17 18 18 16 15 14 13 12 11 11 10 11 10 9 8 7 7 6 5 4 5 6 7 7 8
6 5 6 3 18 10 9 5 5 3 5 7 4 4 1 6 14 10 10 12 7 11 13 9 9 13 17 16 15 13 12 12 11 10 9 9 9 8 7 6 5 5 5 5 6 7 8 9 8
5 5 6 7 9 16 4 1 2 6 9 5 8 8 7 8 20 16 11 9 12 11 11 11 9 6 7 9 15 14 14 13 12 11 10 9 8 7 5 5 5 5 5 7 7 8 9 10 9
5 3 8 11 9 5 3 2 4 1 3 3 5 7 5 19 18 18 14 10 11 11 12 11 7 8 6 5 9 12 15 14 13 11 10 7 4 4 5 6 6 6 7 8 10 10 11 11 10
6 6 9 7 8 6 3 2 4 1 0 2 3 2 11 22 19 22 21 15 15 15 15 12 8 9 8 7 6 5 6 4 4 5 6 4 5 4 4 6 7 8 8 10 11 11 11 10 4
5 9 5 5 4 4 3 3 4 2 4 6 8 7 10 18 15 15 16 19 19 15 12 15 14 13 11 6 5 2 2 3 4 6 5 4 3 3 3 3 3 3 6 4 5 5 3 5 4
5 9 6 6 4 4 2 3 8 4 7 1 10 14 12 12 17 16 15 17 18 16 16 13 11 10 7 5 5 3 4 3 4 4 6 5 3 4 4 3 4 4 3 5 4 3 5 5 6
8 4 4 11 7 5 3 6 8 10 11 9 14 10 18 13 14 12 3 7 16 18 16 14 11 10 7 7 5 4 4 5 5 5 5 4 4 4 3 4 4 4 3 3 3 3 4 4 4
2 9 13 8 6 2 4 5 6 6 5 4 12 16 16 14 10 9 8 7 6 8 8 10 8 7 8 7 7 6 4 3 3 3 5 6 4 4 4 4 3 2 3 2 1 1 2 2 3
6 3 6 7 6 5 7 9 20 12 4 8 14 16 7 9 7 5 11 11 12 8 8 9 10 7 6 4 5 4 5 5 4 4 6 7 6 5 5 2 2 2 3 5 3 3 4 5 5
4 5 4 4 10 8 10 19 2 10 9 10 12 15 9 6 8 6 8 9 7 8 8 4 2 6 7 5 5 4 5 5 6 5 4 6 6 6 4 4 4 4 4 3 4 4 4 4 5
3 4 5 5 13 9 17 6 12 9 9 9 11 13 10 11 8 6 8 13 14 12 11 8 5 5 6 7 6 6 6 6 6 3 4 5 5 4 4 4 4 4 4 4 4 4 4 4 5
4 3 4 8 6 9 7 3 3 6 7 9 10 11 10 9 8 9 9 13 14 14 12 9 6 9 8 5 5 2 1 1 2 3 2 4 4 4 5 5 5 5 6 5 4 5 4 3 4
4 3 3 6 6 6 4 6 7 5 6 7 7 8 7 9 7 6 6 10 12 12 10 8 5 6 8 8 4 1 3 2 3 5 7 7 6 6 7 6 6 5 6 4 5 2 5 5 6
8 3 3 3 3 4 1 4 7 7 5 11 10 8 11 8 8 6 8 7 9 12 11 9 10 5 1 3 8 3 3 1 1 5 5 7 8 4 7 8 6 4 5 6 5 5 2 3 5
8 4 2 2 3 1 2 4 3 2 4 3 4 9 9 14 14 11 9 6 3 8 15 15 11 13 7 8 6 13 6 3 3 3 4 6 6 5 8 7 6 5 4 4 4 4 5 3 4
6 6 6 5 3 4 3 3 4 5 4 2 5 7 9 12 8 9 9 10 13 10 6 10 14 17 14 12 9 17 7 2 3 3 4 5 7 5 6 5 6 6 3 5 4 3 3 4 3
5 8 8 5 2 1 3 6 7 8 4 9 12 9 9 9 12 13 15 14 10 7 7 7 7 7 6 12 19 16 9 6 4 1 6 9 8 4 2 4 5 6 3 5 6 4 3 2 2
7 4 3 4 3 2 6 6 5 7 10 5 11 11 11 11 12 9 5 6 7 7 8 6 7 9 9 8 8 11 12 14 10 4 5 6 3 2 2 4 6 4 4 5 3 3 4 3 3
3 6 2 3 2 6 3 6 9 3 5 8 16 15 13 11 8 8 9 7 7 10 11 8 10 10 11 13 9 12 13 12 11 7 4 5 3 1 3 5 5 2 4 5 4 4 4 4 4
4 6 5 6 5 2 2 6 6 5 7 6 10 16 12 10 8 9 8 8 7 8 9 8 8 7 10 12 10 12 14 7 8 5 4 3 3 3 3 6 5 5 6 5 5 3 4 5 5
1 2 2 5 1 5 4 6 4 6 3 5 8 8 9 9 7 7 9 8 7 8 10 6 10 5 4 6 6 14 15 12 11 8 5 4 4 4 6 6 6 5 6 6 6 5 6 5 5
4 8 2 4 4 3 5 4 6 1 5 5 6 10 12 9 8 8 8 7 5 8 9 7 7 6 5 10 9 9 13 12 10 6 6 6 6 6 6 6 5 6 6 6 6 5 4 5 4
3 1 6 6 3 4 1 6 1 8 8 11 14 16 16 16 14 12 9 7 6 9 9 7 10 12 10 11 12 12 12 12 10 8 7 8 7 6 5 5 7 7 6 5 6 5 6 7 6
6 7 5 6 2 2 4 8 1 6 8 11 12 16 15 16 14 11 8 9 10 12 12 10 10 12 11 10 11 13 14 14 11 9 7 7 7 6 5 6 8 6 5 6 6 6 6 6 6
Wind_Direction
321 292 264 32 54 68 247 253 254 159 230 209 72 175 187 109 164 206 128 124 143 144 155 151 151 145 130 129 133 131 129 129 126 123 123 121 120 122 126 127 126 128 130 131 126 122 113 106 100
315 310 52 83 120 159 252 245 250 206 167 275 107 350 165 134 39 126 108 153 148 143 148 152 154 147 135 137 141 138 138 133 128 123 121 118 121 127 127 127 132 137 139 142 136 129 123 107 29
297 308 105 161 182 209 214 232 237 282 335 173 29 157 325 16 63 149 125 144 143 147 149 155 152 147 140 143 147 146 145 141 135 134 128 124 124 126 133 138 142 143 142 145 145 143 149 284 313
102 18 21 155 229 239 200 223 238 332 135 88 71 110 83 10 123 104 123 130 137 153 152 156 151 149 147 149 154 151 149 147 147 145 138 137 136 139 142 145 145 148 150 156 170 200 224 267 284
47 73 174 219 244 229 224 256 270 317 312 330 145 172 52 52 106 116 116 120 140 155 150 147 148 147 150 155 156 154 156 155 154 151 147 144 144 145 149 153 150 157 170 184 218 236 253 268 286
87 111 151 217 235 237 245 234 284 247 295 296 94 116 122 133 125 137 131 128 143 158 161 156 156 154 157 158 156 154 158 154 157 155 149 147 150 156 161 163 163 173 190 210 241 259 269 276 292
153 127 202 228 227 254 216 171 235 206 252 265 109 77 12 142 130 124 122 123 131 161 161 161 158 163 159 155 156 157 156 158 163 159 160 158 159 165 175 177 183 196 215 230 248 262 274 283 292
135 118 185 219 196 249 239 113 208 206 251 123 141 167 200 191 144 124 120 127 144 157 166 171 166 157 153 159 161 160 161 168 166 165 166 166 169 177 192 207 219 229 244 256 259 268 277 286 290
137 153 210 209 195 163 56 113 263 240 128 9 207 169 226 157 147 129 129 140 152 164 170 177 170 169 145 139 167 166 171 173 170 173 172 168 165 189 214 230 245 260 265 272 277 279 281 287 290
177 192 215 187 162 117 26 348 323 65 10 27 331 275 141 155 163 155 160 168 167 171 173 175 172 179 172 172 168 162 172 147 152 168 173 178 186 200 225 244 258 257 262 265 269 277 288 301 293
214 228 184 216 141 103 177 289 301 9 220 186 207 221 185 156 165 172 168 171 171 168 172 179 178 183 180 168 163 145 146 161 170 181 176 181 184 216 234 248 259 278 264 262 266 285 277 286 296
251 221 228 251 115 98 175 327 305 243 232 148 233 179 190 175 177 172 180 178 167 170 178 178 175 169 168 135 170 169 168 178 182 195 188 179 198 219 233 255 261 250 247 264 262 297 306 292 280
242 268 256 232 265 228 204 214 240 267 275 284 226 222 197 191 170 184 168 195 179 175 180 171 166 171 163 154 156 170 189 189 194 197 203 175 195 225 231 257 259 259 260 252 287 288 297 307 325
224 186 250 250 233 221 190 230 195 252 211 260 182 204 210 170 160 178 166 157 184 166 171 157 165 176 169 166 166 181 185 210 211 200 197 194 197 207 231 241 244 290 246 250 233 276 346 326 315
253 274 264 227 193 187 160 269 229 238 260 261 188 211 145 103 65 123 174 161 167 185 149 161 162 156 167 177 170 170 188 186 200 217 205 197 196 206 216 178 131 146 88 81 85 52 29 11 4
224 160 192 244 166 181 166 248 135 205 192 226 214 210 147 117 112 72 102 100 88 101 89 92 202 171 153 174 189 198 186 193 208 204 202 210 200 199 174 128 93 64 65 66 63 49 45 6 356
288 188 186 300 175 157 185 242 176 197 185 218 215 203 178 140 126 109 94 106 96 97 97 74 353 196 191 185 198 212 207 200 210 204 195 209 198 178 133 115 102 97 77 58 59 50 67 22 343
178 168 170 195 209 201 173 255 288 153 175 211 180 194 178 159 145 144 131 123 105 97 98 97 38 44 9 296 230 214 239 258 169 190 175 126 126 133 99 88 89 76 73 49 54 71 47 37 334
6 129 165 180 230 184 163 167 223 242 144 197 197 164 159 156 146 142 143 134 121 112 104 100 78 62 54 18 316 172 196 197 182 138 133 128 113 112 109 94 91 71 83 73 43 77 52 19 358
275 296 267 262 271 169 104 188 216 198 167 176 189 183 156 137 151 187 183 175 151 143 144 179 162 108 69 48 5 319 244 242 186 96 77 97 94 126 113 110 96 95 91 66 67 59 76 35 29
238 205 264 220 312 227 98 335 171 66 74 141 196 196 166 165 166 179 183 164 149 198 181 178 209 151 155 80 101 312 273 1 50 48 68 50 94 101 98 92 106 92 80 81 66 62 77 66 19
229 207 239 288 57 159 105 233 208 159 93 98 173 180 187 160 163 174 174 178 180 175 179 154 187 198 185 148 135 214 264 280 9 5 94 91 85 74 74 113 100 102 115 88 78 56 80 97 55
219 182 197 210 161 98 327 96 269 125 172 190 205 202 196 184 175 181 197 196 189 153 138 144 169 187 179 178 198 181 168 136 105 93 125 84 68 46 96 104 104 91 70 74 71 48 58 70 94
244 211 65 61 112 66 218 115 283 191 193 155 199 210 196 190 188 189 192 194 187 140 148 170 199 214 199 155 172 179 144 136 136 148 136 111 125 133 168 118 84 90 81 68 65 37 42 53 71
143 95 60 54 51 213 227 99 240 252 219 179 178 202 201 201 196 186 185 182 176 159 167 166 186 206 165 162 153 137 129 138 129 157 121 108 104 193 180 88 76 59 64 57 53 50 40 35 36
176 138 148 160 178 187 276 208 243 222 190 213 191 189 194 189 197 192 186 190 186 161 175 182 153 135 155 133 131 127 120 133 132 132 143 142 137 195 75 78 82 60 66 62 59 51 40 35 39
176 132 195 105 21 71 239 306 283 151 105 148 171 155 201 202 198 191 185 193 157 149 176 145 149 165 114 97 118 136 131 151 142 157 150 140 136 101 82 83 74 69 65 58 54 48 37 40 26
105 164 114 8 121 155 297 291 225 175 186 149 170 202 199 192 186 194 196 202 179 141 165 128 105 110 128 112 128 135 138 137 142 136 132 128 96 89 94 87 82 64 54 51 66 57 33 33 9
98 285 64 104 76 136 75 270 17 283 230 194 201 202 193 188 185 194 184 176 177 159 156 152 126 129 134 139 131 131 129 119 119 124 117 98 95 93 90 93 76 69 63 53 57 45 32 22 356
145 168 120 111 205 171 159 272 203 333 286 229 221 196 201 190 177 183 141 152 148 135 131 145 136 133 129 127 130 122 115 117 112 101 92 101 94 83 87 69 70 85 79 57 52 40 19 5 344